Regional Weather Roundup
Issued by NWS

Home | Current Version | Previous Version | Text Only | Print | Product List | Glossary On
Versions: 1 2 3 4 5 6 7 8 9 10 11 12 13 14 15 16 17 18 19 20 21 22 23 24 25 26 27 28 29 30 31 32 33 34 35 36 37 38 39 40 41 42 43 44 45 46 47 48 49 50
000
ASUS45 KREV 020210
RWRNV
NEVADA REGIONAL WEATHER ROUNDUP
NATIONAL WEATHER SERVICE RENO NV
700 PM PDT MON SEP 01 2014

NOTE: "FAIR" INDICATES FEW OR NO CLOUDS BELOW 12,000 FEET WITH NO
SIGNIFICANT WEATHER AND/OR OBSTRUCTIONS TO VISIBILITY.

NVZ001-003-004-020300-
WESTERN NEVADA

CITY           SKY/WX    TMP DP  RH WIND       PRES   REMARKS
RENO           CLEAR     88  33  14 NE6       29.95S
CARSON CITY    FAIR      84  28  13 E13       29.98S
MINDEN           N/A    N/A N/A N/A MISG        N/A
SLIDE MTN        N/A     64  39  39 CALM        N/A
PYRAMID LAKE     N/A     79 N/A N/A VRB1        N/A
FALLON         CLEAR     86  30  13 N8        29.92F
LOVELOCK       CLEAR     87  36  16 NE7       29.93F
HAWTHORNE      CLEAR     84  34  16 NW9       29.94R
$$

NVZ002-CAZ072-073-020300-
NORTHERN AND CENTRAL SIERRA

CITY           SKY/WX    TMP DP  RH WIND       PRES   REMARKS
S. LAKE TAHOE  CLEAR     72  40  31 CALM      30.10R
TRUCKEE        CLEAR     77  37  24 W10       30.08R
SQUAW VLY 8000 NOT AVBL
SUSANVILLE     CLEAR     84  32  15 SE6       29.95F
BLUE CANYON    CLEAR     77  35  21 VRB5      30.07F
MAMMOTH LAKES  FAIR      79  27  14 NW9       30.14R
BRIDGEPORT     FAIR      78  31  17 NW5       30.10R
$$

NVZ030-031-036-020300-
NORTHERN NEVADA

CITY           SKY/WX    TMP DP  RH WIND       PRES   REMARKS
ELKO           CLEAR     79  24  13 W7        30.02F
WINNEMUCCA     CLEAR     81  25  12 N6        29.99S
WENDOVER       CLEAR     77  34  20 E6        30.02S
$$

NVZ035-037-020300-
CENTRAL NEVADA

CITY           SKY/WX    TMP DP  RH WIND       PRES   REMARKS
ELY            CLEAR     77  32  19 N8        30.08S
EUREKA           N/A     78  35  21 NE8       30.05S
$$

NVZ013-014-020300-
SOUTH CENTRAL NEVADA

CITY           SKY/WX    TMP DP  RH WIND       PRES   REMARKS
TONOPAH        CLEAR     87  25  10 CALM      30.01S
$$

NVZ017-020-022-020300-
SOUTHERN NEVADA

CITY           SKY/WX    TMP DP  RH WIND       PRES   REMARKS
LAS VEGAS      CLEAR    100  35  10 S14       29.72R
N. LAS VEGAS   CLEAR     99  34  10 SE15      29.74S
NELLIS AFB     CLEAR    100  39  12 SE13      29.73R
HENDERSON      CLEAR     99  35  10 S21G26    29.78S
MERCURY        CLEAR     94  26   9 W12       29.84R
$$


USA.gov is the U.S. government's official web portal to all federal, state and local government web resources and services.